Stations météo

Publicité
Geilenkirchen, Allemagne (10500): Température de l'air & dewpoint: 12.01.2018 06:00:00 - 18.01.2018 06:00:00 (CET)Geilenkirchen, Allemagne (10500): Température de l'air -5cm: 12.01.2018 06:00:00 - 18.01.2018 06:00:00 (CET)Geilenkirchen, Allemagne (10500): Température de l'air -20cm & Température de l'air -100cm: 12.01.2018 06:00:00 - 18.01.2018 06:00:00 (CET)Geilenkirchen, Allemagne (10500): Vitesse du vent & gusts: 12.01.2018 06:00:00 - 18.01.2018 06:00:00 (CET)Geilenkirchen, Allemagne (10500): Direction du vent: 12.01.2018 06:00:00 - 18.01.2018 06:00:00 (CET)Geilenkirchen, Allemagne (10500): reduced air pressure: 12.01.2018 06:00:00 - 18.01.2018 06:00:00 (CET)Geilenkirchen, Allemagne (10500): visibility: 12.01.2018 06:00:00 - 18.01.2018 06:00:00 (CET)
Date & Time tt [°C] td [°C] tt -5cm [°C] tt -20cm [°C] tt -100cm [°C] ff [km/h] ff [knt] fx [km/h] fx [knt] dd ppp [hPa] vv [km]
18.01.2018 06:00:00 4,6 2,4 - - - 32 18 72 39 SW 995,5 12
18.01.2018 05:00:00 3,9 2,0 - - - 25 14 54 29 SSW 998,2 9
18.01.2018 04:00:00 4,3 2,1 - - - 18 10 - - SSW 1002,2 10
18.01.2018 03:00:00 4,7 1,9 - - - 18 10 - - SW 1004,3 20
18.01.2018 02:00:00 4,5 1,3 - - - 22 12 - - SW 1006,2 20
18.01.2018 01:00:00 4,4 0,7 - - - 18 10 - - SW 1007,6 10
18.01.2018 00:00:00 4,6 0,4 - - - 22 12 47 25 WSW 1008,1 20
17.01.2018 23:00:00 4,5 0,2 - - - 25 14 - - WSW 1008,5 20
17.01.2018 22:00:00 4,3 0,2 - - - 21 11 - - SW 1008,5 10
17.01.2018 21:00:00 4,5 0,0 - - - 29 16 50 27 SW 1008,3 30
17.01.2018 20:00:00 4,1 -0,5 - - - 18 10 - - SW 1008,4 20
17.01.2018 19:00:00 4,3 -0,3 - - - 24 13 - - WSW 1008,5 10
17.01.2018 18:00:00 4,3 0,1 - - - 32 18 58 31 WSW 1008,0 20
17.01.2018 17:00:00 4,5 0,3 - - - 35 19 61 33 W 1007,0 10
17.01.2018 16:00:00 4,1 1,1 - - - 41 22 - - W 1006,0 10
17.01.2018 15:00:00 4,4 1,0 3,8 4,1 - 41 22 76 41 WSW 1004,5 10
17.01.2018 14:00:00 3,8 0,9 - - - 39 21 68 37 WSW 1003,8 10
17.01.2018 13:00:00 2,3 0,6 - - - 29 16 - - WSW 1003,4 10
17.01.2018 12:00:00 2,0 0,4 - - - 32 18 54 29 WSW 1003,0 10
17.01.2018 11:00:00 2,1 -0,2 - - - 34 18 - - WSW 1002,0 3,5
17.01.2018 10:00:00 2,0 -0,4 - - - 31 17 - - WSW 1001,2 5
17.01.2018 09:00:00 1,1 -0,4 - - - 29 16 - - WSW 999,8 3,5
17.01.2018 08:00:00 0,8 -0,8 2,7 4,2 7,3 43 23 68 37 W 999,0 0,6
17.01.2018 07:00:00 1,7 -0,2 - - - 26 14 - - W 997,4 6
17.01.2018 06:00:00 1,0 0,0 - - - 32 18 68 37 W 996,4 4,0
17.01.2018 05:00:00 3,6 0,2 - - - 29 16 54 29 WSW 994,9 10
17.01.2018 04:00:00 3,8 0,5 - - - 29 16 - - WSW 994,5 10
17.01.2018 03:00:00 3,5 0,9 - - - 25 14 54 29 WSW 994,0 30
17.01.2018 02:00:00 3,5 0,9 - - - 25 14 54 29 SW 993,7 30
17.01.2018 01:00:00 4,1 1,0 - - - 28 15 - - WSW 993,8 10
17.01.2018 00:00:00 4,7 1,3 - - - 18 10 47 25 SW 994,0 10
16.01.2018 23:00:00 4,4 1,2 - - - 22 12 - - SW 994,8 20
16.01.2018 22:00:00 4,0 1,3 - - - 15 8 - - SW 995,0 10
16.01.2018 21:00:00 3,2 0,8 - - - 9 5 - - SW 995,3 10
16.01.2018 20:00:00 3,3 0,4 - - - 28 15 54 29 WSW 995,7 6
16.01.2018 19:00:00 3,4 0,3 - - - 5 3 - - WSW 995,7 10
16.01.2018 18:00:00 3,9 0,6 - - - 18 10 - - WNW 995,9 10
16.01.2018 17:00:00 4,2 0,7 - - - 18 10 68 37 WSW 995,9 10
16.01.2018 16:00:00 3,1 1,0 - - - 29 16 - - W 995,6 8
16.01.2018 15:00:00 6,2 1,0 5,0 5,6 - 29 16 68 37 W 995,1 15
16.01.2018 14:00:00 7,1 1,6 - - - 43 23 61 33 W 994,6 8
16.01.2018 13:00:00 6,9 1,5 - - - 44 24 - - W 995,0 10
16.01.2018 12:00:00 6,8 2,0 - - - 52 28 76 41 W 994,7 10
16.01.2018 11:00:00 7,0 2,8 - - - 43 23 65 35 W 993,5 20
16.01.2018 10:00:00 6,8 3,6 - - - 28 15 - - WSW 993,0 10
16.01.2018 09:00:00 6,5 3,9 - - - 15 8 29 16 WSW 992,7 9
16.01.2018 08:00:00 6,8 3,9 5,1 5,3 7,3 28 15 47 25 WSW 992,6 10
16.01.2018 07:00:00 6,9 3,7 - - - 26 14 - - WSW 992,6 10
16.01.2018 06:00:00 6,8 3,8 - - - 29 16 54 29 WSW 992,9 30
16.01.2018 05:00:00 6,5 3,4 - - - 26 14 50 27 WSW 993,3 10
16.01.2018 04:00:00 6,9 4,0 - - - 16 9 - - SW 994,0 10
16.01.2018 03:00:00 6,6 3,7 - - - 22 12 47 25 WSW 994,7 30
16.01.2018 02:00:00 6,5 4,2 - - - 36 19 61 33 WSW 995,4 30
16.01.2018 01:00:00 6,7 3,8 - - - 24 13 - - WSW 995,2 10
16.01.2018 00:00:00 6,4 4,3 - - - 22 12 65 35 WSW 994,3 15
15.01.2018 23:00:00 7,6 5,9 - - - 21 11 47 25 SW 993,6 10
15.01.2018 22:00:00 6,9 5,1 - - - 28 15 - - SSW 993,6 9
15.01.2018 21:00:00 6,5 3,9 - - - 32 18 68 37 SW 994,0 8
15.01.2018 20:00:00 6,5 2,5 - - - 36 19 83 45 SSW 994,0 30
15.01.2018 19:00:00 6,1 2,8 - - - 37 20 - - SSW 995,1 10
15.01.2018 18:00:00 6,0 3,2 - - - 34 18 72 39 SSW 996,8 10
15.01.2018 17:00:00 7,4 2,7 - - - 29 16 61 33 SSW 998,3 20
15.01.2018 16:00:00 7,1 2,6 - - - 28 15 - - SSW 1000,4 10
15.01.2018 15:00:00 7,4 2,7 5,4 4,9 - 29 16 54 29 SSW 1002,4 20
15.01.2018 14:00:00 7,5 2,9 - - - 26 14 61 33 SSW 1004,0 10
15.01.2018 13:00:00 7,4 3,3 - - - 22 12 - - SSW 1006,5 10
15.01.2018 12:00:00 7,4 3,2 - - - 22 12 54 29 SSW 1008,8 20
15.01.2018 11:00:00 6,7 2,6 - - - 24 13 47 25 SSW 1010,0 10
15.01.2018 10:00:00 6,0 2,1 - - - 13 7 - - SSW 1011,0 10
15.01.2018 09:00:00 5,4 2,0 - - - 14 8 47 25 SSW 1012,0 14
15.01.2018 08:00:00 5,1 2,0 3,4 4,2 7,4 18 10 - - SSW 1012,5 10
15.01.2018 07:00:00 4,8 1,7 - - - 13 7 - - SSW 1013,4 10
15.01.2018 06:00:00 5,4 1,8 - - - 11 6 - - S 1014,1 20
15.01.2018 05:00:00 5,8 1,6 - - - 7 4 - - S 1015,0 20
15.01.2018 04:00:00 6,0 1,4 - - - 11 6 - - S 1015,9 15
15.01.2018 03:00:00 5,4 1,0 - - - 14 8 - - SSW 1016,6 15
15.01.2018 02:00:00 4,8 0,6 - - - 11 6 - - S 1017,2 14
15.01.2018 01:00:00 2,9 0,2 - - - 5 3 - - SSE 1018,1 10
15.01.2018 00:00:00 0,2 -0,8 - - - 7 4 - - ESE 1018,7 7
14.01.2018 23:00:00 -0,8 -1,8 - - - 4 2 - - N 1019,4 7
14.01.2018 22:00:00 -0,7 -1,9 - - - 5 3 - - ESE 1019,3 10
14.01.2018 21:00:00 0,0 -1,7 - - - 7 4 - - E 1019,5 10
14.01.2018 20:00:00 0,3 -1,4 - - - 7 4 - - E 1019,8 12
14.01.2018 19:00:00 2,4 0,0 - - - 8 4 - - ESE 1019,8 10
14.01.2018 18:00:00 - - - - - - - - - - - -
14.01.2018 17:00:00 - - - - - - - - - - - -
14.01.2018 16:00:00 - - - - - - - - - - - -
14.01.2018 15:00:00 - - - - - - - - - - - -
14.01.2018 14:00:00 - - - - - - - - - - - -
14.01.2018 13:00:00 - - - - - - - - - - - -
14.01.2018 12:00:00 - - - - - - - - - - - -
14.01.2018 11:00:00 - - - - - - - - - - - -
14.01.2018 10:00:00 - - - - - - - - - - - -
14.01.2018 09:00:00 - - - - - - - - - - - -
14.01.2018 08:00:00 - - - - - - - - - - - -
14.01.2018 07:00:00 - - - - - - - - - - - -
14.01.2018 06:00:00 - - - - - - - - - - - -
14.01.2018 05:00:00 - - - - - - - - - - - -
14.01.2018 04:00:00 - - - - - - - - - - - -
14.01.2018 03:00:00 - - - - - - - - - - - -
14.01.2018 02:00:00 - - - - - - - - - - - -
14.01.2018 01:00:00 - - - - - - - - - - - -
14.01.2018 00:00:00 - - - - - - - - - - - -
13.01.2018 23:00:00 - - - - - - - - - - - -
13.01.2018 22:00:00 - - - - - - - - - - - -
13.01.2018 21:00:00 - - - - - - - - - - - -
13.01.2018 20:00:00 - - - - - - - - - - - -
13.01.2018 19:00:00 - - - - - - - - - - - -
13.01.2018 18:00:00 - - - - - - - - - - - -
13.01.2018 17:00:00 - - - - - - - - - - - -
13.01.2018 16:00:00 - - - - - - - - - - - -
13.01.2018 15:00:00 - - - - - - - - - - - -
13.01.2018 14:00:00 - - - - - - - - - - - -
13.01.2018 13:00:00 - - - - - - - - - - - -
13.01.2018 12:00:00 - - - - - - - - - - - -
13.01.2018 11:00:00 - - - - - - - - - - - -
13.01.2018 10:00:00 - - - - - - - - - - - -
13.01.2018 09:00:00 - - - - - - - - - - - -
13.01.2018 08:00:00 - - - - - - - - - - - -
13.01.2018 07:00:00 - - - - - - - - - - - -
13.01.2018 06:00:00 - - - - - - - - - - - -
13.01.2018 05:00:00 - - - - - - - - - - - -
13.01.2018 04:00:00 - - - - - - - - - - - -
13.01.2018 03:00:00 - - - - - - - - - - - -
13.01.2018 02:00:00 - - - - - - - - - - - -
13.01.2018 01:00:00 - - - - - - - - - - - -
13.01.2018 00:00:00 - - - - - - - - - - - -
12.01.2018 23:00:00 - - - - - - - - - - - -
12.01.2018 22:00:00 - - - - - - - - - - - -
12.01.2018 21:00:00 - - - - - - - - - - - -
12.01.2018 20:00:00 - - - - - - - - - - - -
12.01.2018 19:00:00 - - - - - - - - - - - -
12.01.2018 18:00:00 - - - - - - - - - - - -
12.01.2018 17:00:00 4,2 3,1 - - - 4 2 - - N 1026,9 1,7
12.01.2018 16:00:00 6,0 4,4 - - - 5 3 - - W 1026,6 4,0
12.01.2018 15:00:00 5,8 4,3 6,8 6,4 - 4 2 - - E 1026,5 4,0
12.01.2018 14:00:00 5,6 4,5 - - - 4 2 - - WNW 1026,4 3,8
12.01.2018 13:00:00 5,3 4,3 - - - 4 2 - - WNW 1026,7 3,0
12.01.2018 12:00:00 5,1 4,3 - - - 7 4 - - W 1026,9 2,5
12.01.2018 11:00:00 5,0 4,4 - - - 11 6 - - WNW 1027,0 2,2
12.01.2018 10:00:00 4,7 4,7 - - - 4 2 - - W 1026,5 1,7
12.01.2018 09:00:00 4,6 4,6 - - - 8 4 - - NW 1026,2 1,2
12.01.2018 08:00:00 4,5 4,5 5,8 6,1 7,5 7 4 - - W 1025,8 0,5
12.01.2018 07:00:00 4,4 4,3 - - - 5 3 - - W 1025,3 0,5
12.01.2018 06:00:00 4,3 4,0 - - - 0 0 - - N 1025,1 0,2

tt = Température de l'air
td = dewpoint
tt -5cm = Température de l'air -5cm
tt -20cm = Température de l'air -20cm
tt -100cm = Température de l'air -100cm
ff = Vitesse du vent
fx = gusts
dd = Direction du vent
ppp = reduced air pressure
vv = visibility

stations d'obs. à proximité